Tracking 31027 objects as of 19-Jul-2025
HD Live streaming from Space Station
objects crossing your sky now

DELTA 1 DEB

Track DELTA 1 DEB now!
10-day predictions


NORAD ID: 5971
Int'l Code: 1967-006E
Perigee: 1,287.9 km
Apogee: 1,462.1 km
Inclination: 101.9 °
Period: 113.1 minutes
Semi major axis: 7745 km
RCS: 0.0243 m2 (small)
Launch date: January 26, 1967
Source: United States (US)
Launch site: AIR FORCE WESTERN TEST RANGE (AFWTR)

Note: This is SATELLITE DEBRIS
Your satellite tracking list
Your tracking list is empty




NASA's NSSDC Master Catalog

Two Line Element Set (TLE):
1 05971U 67006E   25199.27037252 -.00000041  00000-0  38577-4 0  9995
2 05971 101.9193 124.1331 0112430 273.4669 241.4929 12.73468898718587
Source of the keplerian elements: AFSPC